Tracking 29892 objects as of 21-Nov-2024
HD Live streaming from Space Station
objects crossing your sky now

DELTA 1 DEB

Track DELTA 1 DEB now!
10-day predictions


NORAD ID: 7055
Int'l Code: 1973-086AX
Perigee: 1,480.9 km
Apogee: 2,038.9 km
Inclination: 102.7 °
Period: 121.6 minutes
Semi major axis: 8130 km
RCS: 0.1919 m2 (medium)
Launch date: November 6, 1973
Source: United States (US)
Launch site: AIR FORCE WESTERN TEST RANGE (AFWTR)

Note: This is SATELLITE DEBRIS
Your satellite tracking list
Your tracking list is empty




NASA's NSSDC Master Catalog

Two Line Element Set (TLE):
1 07055U 73086AX  24325.23902235  .00000109  00000-0  19212-2 0  9990
2 07055 102.6938  66.5905 0343149  22.4920   5.6844 11.84111349205762
Source of the keplerian elements: AFSPC